Regional Weather Roundup
Issued by NWS State College, PA

Home | Current Version | Previous Version | Text Only | Print | Product List | Glossary Off
Versions: 1 2 3 4 5 6 7 8 9 10 11 12 13 14 15 16 17 18 19 20 21 22 23 24 25 26 27 28 29 30 31 32 33 34 35 36 37 38 39 40 41 42 43 44 45 46 47 48 49 50

000
ASUS41 KCTP 221710
RWRCTP

REGIONAL WEATHER ROUNDUP
NATIONAL WEATHER SERVICE STATE COLLEGE PA
1200 PM EST MON JAN 22 2018

Note: "fair" indicates few or no clouds below 12,000 feet with no
significant weather and/or obstructions to visibility.

* = STATION THAT DOES NOT REPORT PRECIPITATION /E.G. RAIN...SNOW...ETC/
    THUNDER OR FOG.

PAZ002>004-007>009-013>016-020>023-029>032-221800-
WESTERN PENNSYLVANIA

CITY           SKY/WX    TMP DP  RH WIND       PRES   REMARKS
ERIE           PTSUNNY  N/A N/A N/A S18       29.89F
MEADVILLE      CLOUDY    49  46  90 VRB5      29.94F
FRANKLIN*      CLOUDY    50  46  86 S12       29.96F
NEW CASTLE     CLOUDY    52  49  89 S6        29.95F
BEAVER COUNTY  CLOUDY    52  48  87 SE6       29.96F
BUTLER*        CLOUDY    54  48  80 SE6       29.97F
PITTSBURGH INT CLOUDY    56  49  77 SE6       29.96F
PITTSBURGH     PTSUNNY   58  47  66 S9        29.96F
INDIANA*       CLOUDY    59  50  72 S9        30.03F
LATROBE        PTSUNNY   63  48  59 S9        29.99F
WASHINGTON CO* FAIR      61  47  59 S9        29.98
$$

PAZ004>006-010>012-017>019-024>028-033>037-041-042-045-046-049>053-221800-
CENTRAL PENNSYLVANIA

CITY           SKY/WX    TMP DP  RH WIND       PRES   REMARKS
BRADFORD       CLOUDY    48  48 100 S7        29.99F
DUBOIS           N/A    N/A N/A N/A MISG      29.99F
CLEARFIELD     FOG       44  44 100 N6        30.02F VSB<1/4
JOHNSTOWN      CLOUDY    56  49  77 S12       30.01F
ALTOONA        PTSUNNY   53  49  86 CALM      30.04F
STATE COLLEGE  CLOUDY    41  39  93 CALM      30.06F FOG
WILLIAMSPORT   CLOUDY    38  37  97 SE3       30.09F FOG
SELINSGROVE    CLOUDY    39  37  92 CALM      30.10F FOG
FT INDIANTOWN  PTSUNNY   47  44  88 NE3       30.11F
CAPITAL CITY   CLOUDY    49  41  74 CALM      30.11F
HARRISBURG     PTSUNNY   47  40  76 CALM      30.10F
YORK           CLOUDY    50  41  71 CALM      30.09F
$$

PAZ038>040-043-044-047-048-054-055-060>062-067>071-221800-
EASTERN PENNSYLVANIA

CITY           SKY/WX    TMP DP  RH WIND       PRES   REMARKS
SCRANTON       CLOUDY    42  40  92 CALM      30.08F FOG
MOUNT POCONO   CLOUDY    45  44  97 SE8       30.09F
ALLENTOWN      CLOUDY    49  39  68 E5        30.13F
QUAKERTOWN*    NOT AVBL
READING        CLOUDY    49  42  77 CALM      30.11F
LANCASTER      PTSUNNY   50  44  80 E7        30.10F
COATESVILLE    FAIR      50  41  71 VRB5      30.12F
POTTSTOWN      PTSUNNY   50  39  66 E3        30.14F
BLUE BELL      PTSUNNY   52  39  62 E3        30.15F
DOYLESTOWN     FAIR      50  39  66 CALM      30.14F
WILLOW GROVE   NOT AVBL
NORTH PHILA    FAIR      54  39  57 SE5       30.16F
PHILADELPHIA   CLOUDY    54  39  57 S3        30.14F
$$




USA.gov is the U.S. government's official web portal to all federal, state and local government web resources and services.